Location: Condor
(52.3263°N, 114.5541°W)
Time: 01:57:49
(UTC+00:00)

SO-50 - Pass Details

Date: 11 December 2023
Orbit: 608 x 661 km, 64.6° (Epoch: 28 February)

Event Time Altitude Azimuth Distance (km) Brightness Sun altitude
Exits shadow 13:38:44 16° 339° (NNW) 1,667 ? -16.9°
Maximum altitude 13:40:01 18° 359° (N) 1,579 ? -16.7°
Drops below altitude 10° 13:43:09 10° 43° (NE) 2,022 ? -16.3°
Sets 13:46:05 0° 63° (ENE) 2,918 ? -15.9°
